| time (UTC) | temp C | wind direction | speed KPH | gust KPH | rain 1hr cm | rain 24hr cm | rain mn cm | humidity % | barometer mb |
| 20260508033544 | 17 | 0 | 0.0 | 1.6 | 0.00 | 0.00 | 0.00 | 77 | 1015.6 |
| 20260508033052 | 17 | 0 | 0.0 | 3.2 | 0.00 | 0.00 | 0.00 | 76 | 1015.6 |
| 20260508032544 | 17 | 0 | 0.0 | 4.8 | 0.00 | 0.00 | 0.00 | 75 | 1015.4 |
| 20260508032045 | 17 | 0 | 0.0 | 6.4 | 0.00 | 0.00 | 0.00 | 75 | 1015.4 |
| 20260508031556 | 17 | 241 | 0.0 | 6.4 | 0.00 | 0.00 | 0.00 | 74 | 1015.2 |
| 20260508031044 | 17 | 251 | 0.0 | 6.4 | 0.00 | 0.00 | 0.00 | 74 | 1015.2 |
| 20260508030544 | 18 | 203 | 1.6 | 9.7 | 0.00 | 0.00 | 0.00 | 73 | 1015.1 |
| 20260508030053 | 18 | 0 | 0.0 | 9.7 | 0.00 | 0.00 | 0.00 | 72 | 1015.0 |
| 20260508025546 | 18 | 262 | 1.6 | 9.7 | 0.00 | 0.00 | 0.00 | 72 | 1014.9 |
| 20260508025045 | 18 | 197 | 0.0 | 3.2 | 0.00 | 0.00 | 0.00 | 71 | 1014.9 |
| 20260508024553 | 18 | 0 | 0.0 | 6.4 | 0.00 | 0.00 | 0.00 | 70 | 1014.8 |
| 20260508024045 | 19 | 221 | 0.0 | 6.4 | 0.00 | 0.00 | 0.00 | 69 | 1014.6 |
| 20260508023544 | 19 | 0 | 0.0 | 6.4 | 0.00 | 0.00 | 0.00 | 68 | 1014.6 |
| 20260508023049 | 20 | 0 | 0.0 | 9.7 | 0.00 | 0.00 | 0.00 | 67 | 1014.4 |
| 20260508022545 | 20 | 198 | 0.0 | 9.7 | 0.00 | 0.00 | 0.00 | 67 | 1014.4 |
| 20260508022042 | 20 | 243 | 1.6 | 9.7 | 0.00 | 0.00 | 0.00 | 65 | 1014.3 |
| 20260508021553 | 21 | 235 | 1.6 | 11.3 | 0.00 | 0.00 | 0.00 | 64 | 1014.3 |
| 20260508021045 | 21 | 220 | 3.2 | 11.3 | 0.00 | 0.00 | 0.00 | 64 | 1014.2 |
| 20260508020544 | 21 | 289 | 0.0 | 12.9 | 0.00 | 0.00 | 0.00 | 63 | 1014.1 |
| 20260508020050 | 22 | 254 | 4.8 | 12.9 | 0.00 | 0.00 | 0.00 | 60 | 1014.1 |
| 20260508015544 | 23 | 235 | 1.6 | 9.7 | 0.00 | 0.00 | 0.00 | 59 | 1014.1 |
| 20260508015042 | 23 | 232 | 1.6 | 11.3 | 0.00 | 0.00 | 0.00 | 58 | 1014.1 |
| 20260508014555 | 23 | 0 | 3.2 | 11.3 | 0.00 | 0.00 | 0.00 | 57 | 1014.1 |
| 20260508014046 | 23 | 240 | 3.2 | 14.5 | 0.00 | 0.00 | 0.00 | 57 | 1014.1 |
| 20260508013544 | 24 | 230 | 3.2 | 14.5 | 0.00 | 0.00 | 0.00 | 55 | 1014.0 |
| 20260508013055 | 25 | 228 | 3.2 | 14.5 | 0.00 | 0.00 | 0.00 | 55 | 1014.0 |
| 20260508012545 | 25 | 242 | 1.6 | 17.7 | 0.00 | 0.00 | 0.00 | 55 | 1014.0 |
| 20260508012045 | 25 | 185 | 3.2 | 17.7 | 0.00 | 0.00 | 0.00 | 55 | 1013.9 |
| 20260508011550 | 25 | 204 | 4.8 | 17.7 | 0.00 | 0.00 | 0.00 | 55 | 1013.9 |
| 20260508011049 | 25 | 235 | 3.2 | 19.3 | 0.00 | 0.00 | 0.00 | 54 | 1013.9 |
| 20260508010545 | 25 | 247 | 4.8 | 19.3 | 0.00 | 0.00 | 0.00 | 54 | 1013.9 |
| 20260508010055 | 26 | 220 | 4.8 | 14.5 | 0.00 | 0.00 | 0.00 | 51 | 1013.8 |
| 20260508005545 | 26 | 187 | 0.0 | 14.5 | 0.00 | 0.00 | 0.00 | 53 | 1013.7 |
| 20260508005049 | 26 | 229 | 3.2 | 11.3 | 0.00 | 0.00 | 0.00 | 52 | 1013.8 |
| 20260508004601 | 26 | 235 | 3.2 | 12.9 | 0.00 | 0.00 | 0.00 | 52 | 1013.8 |
| 20260508004045 | 26 | 222 | 6.4 | 14.5 | 0.00 | 0.00 | 0.00 | 52 | 1013.8 |
| 20260508003546 | 26 | 317 | 1.6 | 14.5 | 0.00 | 0.00 | 0.00 | 51 | 1013.8 |
| 20260508003048 | 26 | 239 | 4.8 | 17.7 | 0.00 | 0.00 | 0.00 | 52 | 1013.9 |
| 20260508002542 | 26 | 222 | 3.2 | 17.7 | 0.00 | 0.00 | 0.00 | 53 | 1013.8 |
| 20260508002042 | 26 | 231 | 4.8 | 17.7 | 0.00 | 0.00 | 0.00 | 52 | 1013.8 |
| 20260508001556 | 26 | 228 | 6.4 | 17.7 | 0.00 | 0.00 | 0.00 | 53 | 1013.8 |
| 20260508001043 | 26 | 220 | 4.8 | 14.5 | 0.00 | 0.00 | 0.00 | 51 | 1013.9 |
| 20260508000544 | 26 | 249 | 4.8 | 14.5 | 0.00 | 0.00 | 0.00 | 51 | 1013.9 |
| 20260508000059 | 26 | 258 | 4.8 | 16.1 | 0.00 | 0.00 | 0.00 | 51 | 1013.8 |
| 20260507235543 | 26 | 235 | 6.4 | 16.1 | 0.00 | 0.00 | 0.00 | 52 | 1013.9 |
| 20260507235049 | 26 | 246 | 6.4 | 19.3 | 0.00 | 0.00 | 0.00 | 51 | 1013.9 |
| 20260507234601 | 26 | 216 | 8.0 | 19.3 | 0.00 | 0.00 | 0.00 | 50 | 1013.9 |
| 20260507234041 | 26 | 228 | 3.2 | 16.1 | 0.00 | 0.00 | 0.00 | 52 | 1013.9 |
| 20260507233547 | 26 | 228 | 6.4 | 19.3 | 0.00 | 0.00 | 0.00 | 51 | 1013.8 |
| 20260507233052 | 26 | 218 | 6.4 | 19.3 | 0.00 | 0.00 | 0.00 | 50 | 1013.9 |
| 20260507232542 | 26 | 259 | 8.0 | 17.7 | 0.00 | 0.00 | 0.00 | 50 | 1013.8 |
| 20260507232045 | 26 | 243 | 6.4 | 16.1 | 0.00 | 0.00 | 0.00 | 50 | 1013.9 |
| 20260507231559 | 26 | 209 | 8.0 | 16.1 | 0.00 | 0.00 | 0.00 | 50 | 1013.8 |
| 20260507231046 | 27 | 235 | 4.8 | 19.3 | 0.00 | 0.00 | 0.00 | 50 | 1014.0 |
| 20260507230545 | 26 | 207 | 6.4 | 19.3 | 0.00 | 0.00 | 0.00 | 50 | 1013.9 |
| 20260507230052 | 26 | 216 | 6.4 | 19.3 | 0.00 | 0.00 | 0.00 | 49 | 1013.9 |
| 20260507225544 | 27 | 273 | 4.8 | 14.5 | 0.00 | 0.00 | 0.00 | 49 | 1013.9 |
| 20260507225045 | 27 | 248 | 4.8 | 17.7 | 0.00 | 0.00 | 0.00 | 50 | 1013.9 |
| 20260507224559 | 26 | 209 | 6.4 | 19.3 | 0.00 | 0.00 | 0.00 | 50 | 1014.0 |
| 20260507224044 | 26 | 250 | 4.8 | 19.3 | 0.00 | 0.00 | 0.00 | 50 | 1013.9 |
| 20260507223545 | 26 | 229 | 8.0 | 19.3 | 0.00 | 0.00 | 0.00 | 50 | 1013.9 |
| 20260507223053 | 26 | 231 | 6.4 | 17.7 | 0.00 | 0.00 | 0.00 | 50 | 1013.9 |
| 20260507222546 | 26 | 227 | 6.4 | 17.7 | 0.00 | 0.00 | 0.00 | 50 | 1014.1 |
| 20260507222043 | 27 | 240 | 6.4 | 14.5 | 0.00 | 0.00 | 0.00 | 49 | 1014.1 |
| 20260507221553 | 27 | 216 | 3.2 | 12.9 | 0.00 | 0.00 | 0.00 | 49 | 1014.1 |
| 20260507221045 | 27 | 221 | 4.8 | 14.5 | 0.00 | 0.00 | 0.00 | 49 | 1014.2 |
| 20260507220544 | 27 | 226 | 6.4 | 20.9 | 0.00 | 0.00 | 0.00 | 49 | 1014.3 |
| 20260507220049 | 26 | 263 | 3.2 | 20.9 | 0.00 | 0.00 | 0.00 | 52 | 1014.2 |
| 20260507215543 | 26 | 223 | 8.0 | 17.7 | 0.00 | 0.00 | 0.00 | 50 | 1014.4 |
| 20260507215045 | 27 | 253 | 6.4 | 17.7 | 0.00 | 0.00 | 0.00 | 51 | 1014.4 |
| 20260507214601 | 26 | 256 | 6.4 | 24.1 | 0.00 | 0.00 | 0.00 | 52 | 1014.5 |
| 20260507214045 | 26 | 214 | 6.4 | 24.1 | 0.00 | 0.00 | 0.00 | 52 | 1014.5 |
| 20260507213545 | 27 | 212 | 6.4 | 16.1 | 0.00 | 0.00 | 0.00 | 49 | 1014.6 |
| 20260507213049 | 27 | 226 | 6.4 | 16.1 | 0.00 | 0.00 | 0.00 | 50 | 1014.6 |
| 20260507212546 | 27 | 273 | 3.2 | 20.9 | 0.00 | 0.00 | 0.00 | 51 | 1014.7 |
| 20260507212045 | 26 | 223 | 8.0 | 20.9 | 0.00 | 0.00 | 0.00 | 51 | 1014.8 |
| 20260507211551 | 26 | 211 | 8.0 | 20.9 | 0.00 | 0.00 | 0.00 | 51 | 1014.8 |
| 20260507211044 | 27 | 209 | 6.4 | 17.7 | 0.00 | 0.00 | 0.00 | 48 | 1014.9 |
| 20260507210542 | 27 | 239 | 6.4 | 14.5 | 0.00 | 0.00 | 0.00 | 49 | 1014.7 |
| 20260507210059 | 27 | 225 | 4.8 | 17.7 | 0.00 | 0.00 | 0.00 | 50 | 1014.9 |
| 20260507205544 | 27 | 219 | 3.2 | 17.7 | 0.00 | 0.00 | 0.00 | 50 | 1014.9 |
| 20260507205045 | 27 | 251 | 6.4 | 16.1 | 0.00 | 0.00 | 0.00 | 48 | 1015.0 |
| 20260507204546 | 26 | 230 | 4.8 | 16.1 | 0.00 | 0.00 | 0.00 | 50 | 1015.0 |
| 20260507204048 | 27 | 237 | 4.8 | 12.9 | 0.00 | 0.00 | 0.00 | 48 | 1015.0 |
| 20260507203545 | 27 | 174 | 3.2 | 16.1 | 0.00 | 0.00 | 0.00 | 49 | 1015.1 |
| 20260507203104 | 27 | 237 | 3.2 | 16.1 | 0.00 | 0.00 | 0.00 | 50 | 1015.1 |
| 20260507202545 | 26 | 264 | 8.0 | 17.7 | 0.00 | 0.00 | 0.00 | 50 | 1015.3 |
| 20260507202045 | 26 | 227 | 3.2 | 17.7 | 0.00 | 0.00 | 0.00 | 50 | 1015.3 |
| 20260507201556 | 26 | 223 | 3.2 | 17.7 | 0.00 | 0.00 | 0.00 | 50 | 1015.4 |
| 20260507201045 | 26 | 268 | 3.2 | 17.7 | 0.00 | 0.00 | 0.00 | 49 | 1015.5 |
| 20260507200545 | 26 | 238 | 4.8 | 17.7 | 0.00 | 0.00 | 0.00 | 49 | 1015.6 |
| 20260507200104 | 26 | 169 | 3.2 | 14.5 | 0.00 | 0.00 | 0.00 | 52 | 1015.6 |
| 20260507195545 | 25 | 258 | 3.2 | 14.5 | 0.00 | 0.00 | 0.00 | 52 | 1015.7 |
| 20260507195045 | 25 | 246 | 4.8 | 17.7 | 0.00 | 0.00 | 0.00 | 50 | 1015.7 |
| 20260507194552 | 25 | 220 | 8.0 | 17.7 | 0.00 | 0.00 | 0.00 | 51 | 1015.7 |
| 20260507194042 | 26 | 235 | 3.2 | 16.1 | 0.00 | 0.00 | 0.00 | 52 | 1015.7 |
| 20260507193541 | 25 | 248 | 4.8 | 16.1 | 0.00 | 0.00 | 0.00 | 50 | 1015.7 |
| 20260507193051 | 25 | 256 | 0.0 | 11.3 | 0.00 | 0.00 | 0.00 | 50 | 1015.8 |
| 20260507192546 | 25 | 256 | 3.2 | 11.3 | 0.00 | 0.00 | 0.00 | 52 | 1015.9 |
| 20260507192045 | 25 | 235 | 4.8 | 11.3 | 0.00 | 0.00 | 0.00 | 53 | 1016.0 |
| 20260507191552 | 25 | 242 | 3.2 | 12.9 | 0.00 | 0.00 | 0.00 | 56 | 1015.9 |
| 20260507191044 | 24 | 270 | 6.4 | 12.9 | 0.00 | 0.00 | 0.00 | 53 | 1016.1 |
| 20260507190546 | 25 | 252 | 0.0 | 6.4 | 0.00 | 0.00 | 0.00 | 56 | 1016.0 |
| 20260507190057 | 24 | 242 | 1.6 | 12.9 | 0.00 | 0.00 | 0.00 | 58 | 1016.1 |
| 20260507185546 | 23 | 244 | 4.8 | 16.1 | 0.00 | 0.00 | 0.00 | 55 | 1016.3 |
| 20260507185042 | 23 | 210 | 6.4 | 16.1 | 0.00 | 0.00 | 0.00 | 56 | 1016.4 |
| 20260507184558 | 24 | 231 | 4.8 | 11.3 | 0.00 | 0.00 | 0.00 | 53 | 1016.5 |
| 20260507184046 | 24 | 233 | 3.2 | 11.3 | 0.00 | 0.00 | 0.00 | 53 | 1016.5 |
| 20260507183543 | 23 | 234 | 3.2 | 11.3 | 0.00 | 0.00 | 0.00 | 55 | 1016.6 |
| 20260507183054 | 24 | 236 | 1.6 | 9.7 | 0.00 | 0.00 | 0.00 | 54 | 1016.6 |
| 20260507182545 | 23 | 0 | 3.2 | 9.7 | 0.00 | 0.00 | 0.00 | 56 | 1016.6 |
| 20260507182046 | 23 | 224 | 3.2 | 9.7 | 0.00 | 0.00 | 0.00 | 56 | 1016.7 |
| 20260507181553 | 23 | 176 | 0.0 | 9.7 | 0.00 | 0.00 | 0.00 | 60 | 1016.7 |
| 20260507181045 | 23 | 233 | 4.8 | 9.7 | 0.00 | 0.00 | 0.00 | 55 | 1016.7 |
| 20260507180549 | 23 | 236 | 1.6 | 9.7 | 0.00 | 0.00 | 0.00 | 55 | 1016.7 |
| 20260507180054 | 23 | 240 | 3.2 | 9.7 | 0.00 | 0.00 | 0.00 | 54 | 1016.8 |
| 20260507175550 | 23 | 243 | 0.0 | 9.7 | 0.00 | 0.00 | 0.00 | 60 | 1016.8 |
| 20260507175046 | 22 | 232 | 0.0 | 9.7 | 0.00 | 0.00 | 0.00 | 59 | 1016.8 |
| 20260507174556 | 23 | 239 | 1.6 | 8.0 | 0.00 | 0.00 | 0.00 | 56 | 1016.8 |
| 20260507174042 | 22 | 234 | 1.6 | 9.7 | 0.00 | 0.00 | 0.00 | 58 | 1016.8 |
| 20260507173545 | 21 | 238 | 3.2 | 9.7 | 0.00 | 0.00 | 0.00 | 60 | 1016.9 |
| 20260507173050 | 21 | 234 | 1.6 | 8.0 | 0.00 | 0.00 | 0.00 | 60 | 1016.9 |
| 20260507172547 | 21 | 240 | 1.6 | 8.0 | 0.00 | 0.00 | 0.00 | 58 | 1016.8 |
| 20260507172043 | 22 | 247 | 1.6 | 8.0 | 0.00 | 0.00 | 0.00 | 57 | 1016.8 |
| 20260507171552 | 22 | 183 | 0.0 | 6.4 | 0.00 | 0.00 | 0.00 | 60 | 1016.8 |
| 20260507171045 | 22 | 201 | 0.0 | 8.0 | 0.00 | 0.00 | 0.00 | 65 | 1016.8 |
| 20260507170542 | 21 | 0 | 1.6 | 8.0 | 0.00 | 0.00 | 0.00 | 64 | 1016.8 |
| 20260507165545 | 21 | 229 | 0.0 | 8.0 | 0.00 | 0.00 | 0.00 | 67 | 1017.0 |
| 20260507165043 | 20 | 266 | 0.0 | 8.0 | 0.00 | 0.00 | 0.00 | 64 | 1016.8 |
| 20260507164603 | 20 | 281 | 1.6 | 6.4 | 0.00 | 0.00 | 0.00 | 63 | 1016.9 |
| 20260507164045 | 21 | 230 | 1.6 | 6.4 | 0.00 | 0.00 | 0.00 | 63 | 1016.9 |
| 20260507163543 | 21 | 219 | 0.0 | 1.6 | 0.00 | 0.00 | 0.00 | 63 | 1017.0 |
| 20260507163049 | 21 | 0 | 0.0 | 3.2 | 0.00 | 0.00 | 0.00 | 65 | 1016.9 |
| 20260507162543 | 20 | 0 | 0.0 | 3.2 | 0.00 | 0.00 | 0.00 | 65 | 1016.9 |
| 20260507162042 | 20 | 179 | 0.0 | 4.8 | 0.00 | 0.00 | 0.00 | 66 | 1016.8 |
| 20260507161551 | 19 | 0 | 0.0 | 4.8 | 0.00 | 0.00 | 0.00 | 68 | 1016.8 |
| 20260507161045 | 18 | 272 | 0.0 | 6.4 | 0.00 | 0.00 | 0.00 | 69 | 1016.8 |
| 20260507160545 | 18 | 0 | 0.0 | 8.0 | 0.00 | 0.00 | 0.00 | 71 | 1016.9 |
| 20260507160054 | 17 | 0 | 1.6 | 8.0 | 0.00 | 0.00 | 0.00 | 71 | 1017.0 |
| 20260507155547 | 17 | 229 | 0.0 | 4.8 | 0.00 | 0.00 | 0.00 | 71 | 1017.0 |
| 20260507155106 | 17 | 235 | 0.0 | 4.8 | 0.00 | 0.00 | 0.00 | 73 | 1017.0 |
| 20260507154556 | 17 | 258 | 1.6 | 4.8 | 0.00 | 0.00 | 0.00 | 73 | 1017.1 |
| 20260507154044 | 16 | 236 | 0.0 | 3.2 | 0.00 | 0.00 | 0.00 | 74 | 1017.0 |
| 20260507153545 | 16 | 0 | 0.0 | 3.2 | 0.00 | 0.00 | 0.00 | 74 | 1017.1 |
| 20260507153046 | 16 | 0 | 0.0 | 3.2 | 0.00 | 0.00 | 0.00 | 75 | 1017.1 |
| 20260507152545 | 16 | 0 | 0.0 | 4.8 | 0.00 | 0.00 | 0.00 | 75 | 1017.1 |
| 20260507152044 | 16 | 242 | 1.6 | 4.8 | 0.00 | 0.00 | 0.00 | 76 | 1017.1 |
| 20260507151550 | 16 | 244 | 0.0 | 4.8 | 0.00 | 0.00 | 0.00 | 76 | 1017.1 |
| 20260507151043 | 16 | 246 | 0.0 | 4.8 | 0.00 | 0.00 | 0.00 | 76 | 1017.0 |
| 20260507150543 | 16 | 248 | 0.0 | 3.2 | 0.00 | 0.00 | 0.00 | 75 | 1017.0 |
| 20260507150051 | 16 | 0 | 0.0 | 1.6 | 0.00 | 0.00 | 0.00 | 77 | 1016.9 |
| 20260507145543 | 15 | 0 | 0.0 | 1.6 | 0.00 | 0.00 | 0.00 | 79 | 1017.0 |
| 20260507145044 | 15 | 0 | 0.0 | 0.0 | 0.00 | 0.00 | 0.00 | 78 | 1017.1 |
| 20260507144555 | 15 | 0 | 0.0 | 1.6 | 0.00 | 0.00 | 0.00 | 78 | 1017.1 |
| 20260507144044 | 15 | 0 | 0.0 | 1.6 | 0.00 | 0.00 | 0.00 | 79 | 1016.9 |
| 20260507143545 | 14 | 177 | 0.0 | 1.6 | 0.00 | 0.00 | 0.00 | 79 | 1016.9 |
| 20260507143101 | 14 | 0 | 0.0 | 0.0 | 0.00 | 0.00 | 0.00 | 80 | 1016.8 |
| 20260507142545 | 14 | 0 | 0.0 | 0.0 | 0.00 | 0.00 | 0.00 | 81 | 1016.8 |
| 20260507142045 | 13 | 0 | 0.0 | 0.0 | 0.00 | 0.00 | 0.00 | 83 | 1016.8 |
| 20260507141555 | 12 | 0 | 0.0 | 1.6 | 0.00 | 0.00 | 0.00 | 84 | 1016.7 |
| 20260507141043 | 12 | 0 | 0.0 | 1.6 | 0.00 | 0.00 | 0.00 | 85 | 1016.7 |
| 20260507140545 | 12 | 0 | 0.0 | 1.6 | 0.00 | 0.00 | 0.00 | 84 | 1016.7 |
| 20260507140052 | 12 | 0 | 0.0 | 9.7 | 0.00 | 0.00 | 0.00 | 85 | 1016.7 |
| 20260507135545 | 12 | 0 | 0.0 | 9.7 | 0.00 | 0.00 | 0.00 | 85 | 1016.6 |
| 20260507135043 | 12 | 0 | 0.0 | 9.7 | 0.00 | 0.00 | 0.00 | 85 | 1016.5 |
| 20260507134554 | 12 | 0 | 0.0 | 0.0 | 0.00 | 0.00 | 0.00 | 85 | 1016.4 |
| 20260507134043 | 11 | 0 | 0.0 | 0.0 | 0.00 | 0.00 | 0.00 | 86 | 1016.4 |
| 20260507133544 | 11 | 0 | 0.0 | 0.0 | 0.00 | 0.00 | 0.00 | 86 | 1016.2 |
| 20260507133118 | 11 | 0 | 0.0 | 0.0 | 0.00 | 0.00 | 0.00 | 86 | 1016.2 |
| 20260507132545 | 11 | 0 | 0.0 | 0.0 | 0.00 | 0.00 | 0.00 | 86 | 1016.3 |
| 20260507132045 | 11 | 0 | 0.0 | 0.0 | 0.00 | 0.00 | 0.00 | 86 | 1016.2 |
| 20260507131555 | 11 | 0 | 0.0 | 0.0 | 0.00 | 0.00 | 0.00 | 86 | 1016.2 |
| 20260507131045 | 11 | 0 | 0.0 | 0.0 | 0.00 | 0.00 | 0.00 | 86 | 1016.2 |
| 20260507130545 | 11 | 0 | 0.0 | 0.0 | 0.00 | 0.00 | 0.00 | 85 | 1016.3 |
| 20260507130108 | 11 | 0 | 0.0 | 0.0 | 0.00 | 0.00 | 0.00 | 85 | 1016.1 |
| 20260507125543 | 11 | 0 | 0.0 | 0.0 | 0.00 | 0.00 | 0.00 | 85 | 1016.1 |
| 20260507125042 | 11 | 0 | 0.0 | 0.0 | 0.00 | 0.00 | 0.00 | 85 | 1016.0 |
| 20260507124548 | 11 | 0 | 0.0 | 0.0 | 0.00 | 0.00 | 0.00 | 85 | 1016.1 |
| 20260507124045 | 11 | 0 | 0.0 | 0.0 | 0.00 | 0.00 | 0.00 | 85 | 1016.1 |
| 20260507123546 | 11 | 0 | 0.0 | 1.6 | 0.00 | 0.00 | 0.00 | 85 | 1016.1 |
| 20260507123053 | 11 | 0 | 0.0 | 1.6 | 0.00 | 0.00 | 0.00 | 85 | 1016.1 |
| 20260507122542 | 11 | 202 | 0.0 | 1.6 | 0.00 | 0.00 | 0.00 | 85 | 1016.1 |
| 20260507122045 | 11 | 0 | 0.0 | 0.0 | 0.00 | 0.00 | 0.00 | 85 | 1016.2 |
| 20260507121604 | 11 | 0 | 0.0 | 0.0 | 0.00 | 0.00 | 0.00 | 85 | 1016.2 |
| 20260507121044 | 11 | 0 | 0.0 | 0.0 | 0.00 | 0.00 | 0.00 | 85 | 1016.2 |
| 20260507120543 | 11 | 0 | 0.0 | 0.0 | 0.00 | 0.00 | 0.00 | 85 | 1016.1 |
| 20260507120058 | 11 | 0 | 0.0 | 0.0 | 0.00 | 0.00 | 0.00 | 85 | 1016.2 |
| 20260507115545 | 11 | 0 | 0.0 | 1.6 | 0.00 | 0.00 | 0.00 | 85 | 1016.2 |
| 20260507115049 | 11 | 0 | 0.0 | 1.6 | 0.00 | 0.00 | 0.00 | 85 | 1016.3 |
| 20260507114633 | 11 | 0 | 0.0 | 0.0 | 0.00 | 0.00 | 0.00 | 85 | 1016.2 |
| 20260507114043 | 11 | 0 | 0.0 | 1.6 | 0.00 | 0.00 | 0.00 | 85 | 1016.3 |
| 20260507113548 | 11 | 0 | 0.0 | 1.6 | 0.00 | 0.00 | 0.00 | 85 | 1016.3 |
| 20260507113049 | 11 | 0 | 0.0 | 1.6 | 0.00 | 0.00 | 0.00 | 85 | 1016.3 |
| 20260507112545 | 11 | 0 | 0.0 | 0.0 | 0.00 | 0.00 | 0.00 | 85 | 1016.4 |
| 20260507112045 | 11 | 0 | 0.0 | 0.0 | 0.00 | 0.00 | 0.00 | 85 | 1016.4 |
| 20260507111558 | 11 | 0 | 0.0 | 0.0 | 0.00 | 0.00 | 0.00 | 84 | 1016.5 |
| 20260507111042 | 12 | 0 | 0.0 | 1.6 | 0.00 | 0.00 | 0.00 | 84 | 1016.4 |
| 20260507110542 | 12 | 0 | 0.0 | 1.6 | 0.00 | 0.00 | 0.00 | 84 | 1016.4 |
| 20260507110052 | 12 | 0 | 0.0 | 0.0 | 0.00 | 0.00 | 0.00 | 85 | 1016.5 |
| 20260507105545 | 12 | 0 | 0.0 | 0.0 | 0.00 | 0.00 | 0.00 | 85 | 1016.5 |
| 20260507105045 | 11 | 0 | 0.0 | 0.0 | 0.00 | 0.00 | 0.00 | 85 | 1016.5 |
| 20260507104550 | 11 | 0 | 0.0 | 0.0 | 0.00 | 0.00 | 0.00 | 85 | 1016.5 |
| 20260507104043 | 11 | 0 | 0.0 | 0.0 | 0.00 | 0.00 | 0.00 | 84 | 1016.7 |
| 20260507103545 | 11 | 0 | 0.0 | 0.0 | 0.00 | 0.00 | 0.00 | 84 | 1016.7 |
| 20260507103049 | 11 | 0 | 0.0 | 0.0 | 0.00 | 0.00 | 0.00 | 84 | 1016.7 |
| 20260507102543 | 11 | 0 | 0.0 | 0.0 | 0.00 | 0.00 | 0.00 | 84 | 1016.7 |
| 20260507102045 | 11 | 0 | 0.0 | 0.0 | 0.00 | 0.00 | 0.00 | 84 | 1016.8 |
| 20260507101550 | 11 | 0 | 0.0 | 0.0 | 0.00 | 0.00 | 0.00 | 83 | 1016.7 |
| 20260507101044 | 11 | 0 | 0.0 | 0.0 | 0.00 | 0.00 | 0.00 | 83 | 1016.8 |
| 20260507100542 | 12 | 0 | 0.0 | 0.0 | 0.00 | 0.00 | 0.00 | 83 | 1016.8 |
| 20260507100052 | 12 | 0 | 0.0 | 0.0 | 0.00 | 0.00 | 0.00 | 84 | 1016.9 |
| 20260507095545 | 11 | 0 | 0.0 | 0.0 | 0.00 | 0.00 | 0.00 | 84 | 1017.0 |
| 20260507095043 | 11 | 0 | 0.0 | 0.0 | 0.00 | 0.00 | 0.00 | 84 | 1017.0 |
| 20260507094549 | 11 | 0 | 0.0 | 0.0 | 0.00 | 0.00 | 0.00 | 83 | 1017.0 |
| 20260507094045 | 12 | 0 | 0.0 | 0.0 | 0.00 | 0.00 | 0.00 | 82 | 1017.0 |
| 20260507093545 | 12 | 0 | 0.0 | 0.0 | 0.00 | 0.00 | 0.00 | 82 | 1017.1 |
| 20260507093049 | 12 | 0 | 0.0 | 0.0 | 0.00 | 0.00 | 0.00 | 82 | 1017.1 |
| 20260507092545 | 12 | 0 | 0.0 | 0.0 | 0.00 | 0.00 | 0.00 | 82 | 1017.2 |
| 20260507092044 | 12 | 0 | 0.0 | 0.0 | 0.00 | 0.00 | 0.00 | 82 | 1017.2 |
| 20260507091549 | 12 | 0 | 0.0 | 0.0 | 0.00 | 0.00 | 0.00 | 82 | 1017.3 |
| 20260507091045 | 12 | 0 | 0.0 | 0.0 | 0.00 | 0.00 | 0.00 | 82 | 1017.3 |
| 20260507090545 | 12 | 0 | 0.0 | 0.0 | 0.00 | 0.00 | 0.00 | 82 | 1017.4 |
| 20260507090049 | 12 | 0 | 0.0 | 0.0 | 0.00 | 0.00 | 0.00 | 82 | 1017.4 |
| 20260507085543 | 12 | 0 | 0.0 | 0.0 | 0.00 | 0.00 | 0.00 | 83 | 1017.5 |
| 20260507085043 | 12 | 0 | 0.0 | 0.0 | 0.00 | 0.00 | 0.00 | 83 | 1017.5 |
| 20260507084557 | 12 | 0 | 0.0 | 0.0 | 0.00 | 0.00 | 0.00 | 83 | 1017.6 |
| 20260507084048 | 12 | 0 | 0.0 | 0.0 | 0.00 | 0.00 | 0.00 | 82 | 1017.6 |
| 20260507083546 | 12 | 0 | 0.0 | 0.0 | 0.00 | 0.00 | 0.00 | 82 | 1017.7 |
| 20260507083051 | 12 | 0 | 0.0 | 0.0 | 0.00 | 0.00 | 0.00 | 82 | 1017.7 |
| 20260507082546 | 12 | 0 | 0.0 | 0.0 | 0.00 | 0.00 | 0.00 | 82 | 1017.7 |
| 20260507082045 | 12 | 0 | 0.0 | 0.0 | 0.00 | 0.00 | 0.00 | 82 | 1017.6 |
| 20260507081548 | 12 | 0 | 0.0 | 0.0 | 0.00 | 0.00 | 0.00 | 82 | 1017.7 |
| 20260507081045 | 12 | 0 | 0.0 | 0.0 | 0.00 | 0.00 | 0.00 | 82 | 1017.7 |
| 20260507080546 | 12 | 0 | 0.0 | 0.0 | 0.00 | 0.00 | 0.00 | 82 | 1017.7 |
| 20260507080117 | 12 | 0 | 0.0 | 0.0 | 0.00 | 0.00 | 0.00 | 82 | 1017.7 |
| 20260507075545 | 12 | 0 | 0.0 | 0.0 | 0.00 | 0.00 | 0.00 | 82 | 1017.7 |
| 20260507075043 | 12 | 0 | 0.0 | 0.0 | 0.00 | 0.00 | 0.00 | 82 | 1017.7 |
| 20260507074549 | 12 | 0 | 0.0 | 0.0 | 0.00 | 0.00 | 0.00 | 82 | 1017.8 |
| 20260507074042 | 12 | 0 | 0.0 | 0.0 | 0.00 | 0.00 | 0.00 | 82 | 1017.7 |
| 20260507073542 | 12 | 0 | 0.0 | 0.0 | 0.00 | 0.00 | 0.00 | 81 | 1017.6 |
| 20260507073105 | 12 | 0 | 0.0 | 0.0 | 0.00 | 0.00 | 0.00 | 81 | 1017.7 |
| 20260507072543 | 12 | 0 | 0.0 | 0.0 | 0.00 | 0.00 | 0.00 | 82 | 1017.7 |
| 20260507072045 | 12 | 0 | 0.0 | 0.0 | 0.00 | 0.00 | 0.00 | 80 | 1017.7 |
| 20260507071554 | 12 | 0 | 0.0 | 0.0 | 0.00 | 0.00 | 0.00 | 81 | 1017.8 |
| 20260507071045 | 12 | 0 | 0.0 | 0.0 | 0.00 | 0.00 | 0.00 | 81 | 1017.8 |
| 20260507070545 | 12 | 0 | 0.0 | 0.0 | 0.00 | 0.00 | 0.00 | 81 | 1017.8 |
| 20260507070100 | 12 | 0 | 0.0 | 0.0 | 0.00 | 0.00 | 0.00 | 81 | 1017.8 |
| 20260507065548 | 12 | 0 | 0.0 | 0.0 | 0.00 | 0.00 | 0.00 | 82 | 1018.0 |
| 20260507065042 | 12 | 0 | 0.0 | 0.0 | 0.00 | 0.00 | 0.00 | 81 | 1018.0 |
| 20260507064600 | 12 | 0 | 0.0 | 0.0 | 0.00 | 0.00 | 0.00 | 80 | 1018.0 |
| 20260507064044 | 12 | 0 | 0.0 | 0.0 | 0.00 | 0.00 | 0.00 | 79 | 1017.9 |
| 20260507063544 | 13 | 0 | 0.0 | 0.0 | 0.00 | 0.00 | 0.00 | 79 | 1018.0 |
| 20260507063059 | 13 | 0 | 0.0 | 0.0 | 0.00 | 0.00 | 0.00 | 78 | 1018.1 |
| 20260507062545 | 13 | 0 | 0.0 | 0.0 | 0.00 | 0.00 | 0.00 | 78 | 1018.1 |
| 20260507062045 | 13 | 0 | 0.0 | 0.0 | 0.00 | 0.00 | 0.00 | 76 | 1018.0 |
| 20260507061555 | 14 | 0 | 0.0 | 0.0 | 0.00 | 0.00 | 0.00 | 76 | 1018.0 |
| 20260507061041 | 14 | 0 | 0.0 | 1.6 | 0.00 | 0.00 | 0.00 | 76 | 1018.0 |
| 20260507060544 | 15 | 0 | 0.0 | 4.8 | 0.00 | 0.00 | 0.00 | 75 | 1018.0 |
| 20260507060056 | 15 | 0 | 0.0 | 4.8 | 0.00 | 0.00 | 0.00 | 75 | 1017.9 |
| 20260507055546 | 15 | 240 | 0.0 | 4.8 | 0.00 | 0.00 | 0.00 | 74 | 1018.0 |
| 20260507055046 | 15 | 231 | 1.6 | 4.8 | 0.00 | 0.00 | 0.00 | 74 | 1018.0 |
| 20260507054553 | 15 | 0 | 1.6 | 4.8 | 0.00 | 0.00 | 0.00 | 74 | 1018.0 |
| 20260507054043 | 15 | 230 | 1.6 | 4.8 | 0.00 | 0.00 | 0.00 | 74 | 1018.0 |
| 20260507053543 | 15 | 238 | 0.0 | 4.8 | 0.00 | 0.00 | 0.00 | 73 | 1018.1 |
| 20260507053113 | 15 | 235 | 0.0 | 4.8 | 0.00 | 0.00 | 0.00 | 73 | 1018.0 |
| 20260507052545 | 15 | 239 | 1.6 | 4.8 | 0.00 | 0.00 | 0.00 | 73 | 1017.9 |
| 20260507052043 | 15 | 240 | 0.0 | 6.4 | 0.00 | 0.00 | 0.00 | 73 | 1017.9 |
| 20260507051552 | 15 | 234 | 3.2 | 9.7 | 0.00 | 0.00 | 0.00 | 72 | 1017.9 |
| 20260507051045 | 15 | 235 | 3.2 | 9.7 | 0.00 | 0.00 | 0.00 | 72 | 1017.9 |
| 20260507050542 | 15 | 244 | 1.6 | 6.4 | 0.00 | 0.00 | 0.00 | 72 | 1017.9 |
| 20260507050057 | 15 | 233 | 1.6 | 6.4 | 0.00 | 0.00 | 0.00 | 72 | 1017.8 |
| 20260507045545 | 16 | 231 | 0.0 | 6.4 | 0.00 | 0.00 | 0.00 | 72 | 1017.8 |
| 20260507045042 | 16 | 235 | 1.6 | 4.8 | 0.00 | 0.00 | 0.00 | 72 | 1017.9 |
| 20260507044553 | 16 | 232 | 0.0 | 4.8 | 0.00 | 0.00 | 0.00 | 72 | 1017.8 |
| 20260507044045 | 16 | 235 | 1.6 | 4.8 | 0.00 | 0.00 | 0.00 | 72 | 1017.8 |
| 20260507043545 | 16 | 241 | 0.0 | 4.8 | 0.00 | 0.00 | 0.00 | 71 | 1017.8 |
| 20260507043049 | 16 | 240 | 1.6 | 6.4 | 0.00 | 0.00 | 0.00 | 71 | 1017.8 |
| 20260507042546 | 16 | 235 | 1.6 | 8.0 | 0.00 | 0.00 | 0.00 | 71 | 1017.8 |
| 20260507042045 | 16 | 237 | 1.6 | 8.0 | 0.00 | 0.00 | 0.00 | 70 | 1017.8 |
| 20260507041554 | 16 | 238 | 3.2 | 6.4 | 0.00 | 0.00 | 0.00 | 70 | 1017.8 |
| 20260507041047 | 16 | 240 | 1.6 | 6.4 | 0.00 | 0.00 | 0.00 | 70 | 1017.8 |
| 20260507040544 | 16 | 237 | 3.2 | 6.4 | 0.00 | 0.00 | 0.00 | 69 | 1017.7 |
| 20260507040056 | 16 | 240 | 3.2 | 8.0 | 0.00 | 0.00 | 0.00 | 69 | 1017.7 |
| 20260507035543 | 16 | 240 | 3.2 | 9.7 | 0.00 | 0.00 | 0.00 | 69 | 1017.6 |
| 20260507035043 | 16 | 237 | 3.2 | 9.7 | 0.00 | 0.00 | 0.00 | 68 | 1017.6 |
| 20260507034554 | 17 | 232 | 1.6 | 6.4 | 0.00 | 0.00 | 0.00 | 68 | 1017.5 |
| 20260507034045 | 17 | 237 | 1.6 | 6.4 | 0.00 | 0.00 | 0.00 | 67 | 1017.4 |